Wind_Speed
25 26 23 18 19 17 20 10 12 8 11 14 13 16 18 15 19 18 19 19 18 15 13 14 15 17 15 15 14 13 11 10 7 6 6 5 6 5 6 5 4 3 2 3 4 4 1 2 3
26 22 15 15 15 14 13 14 6 10 11 15 14 19 18 14 25 17 15 15 15 13 13 15 15 14 14 13 13 13 11 8 7 6 6 5 5 4 5 5 5 5 3 1 0 0 0 2 4
19 16 14 15 10 8 13 9 2 8 11 16 17 15 18 16 20 16 16 14 15 13 12 13 13 12 11 10 9 7 6 5 4 3 3 3 3 4 5 7 7 7 4 2 3 3 3 3 4
22 13 14 10 18 2 9 10 9 8 10 12 16 12 17 15 15 14 15 13 14 13 12 11 11 10 9 7 7 7 7 7 6 6 4 4 5 7 6 7 7 7 9 6 3 1 3 4 4
22 18 20 5 14 15 10 7 8 8 7 9 11 10 13 13 14 12 12 12 12 11 11 10 9 9 8 7 7 7 6 7 8 9 9 6 6 6 5 7 8 9 9 9 7 3 3 4 5
19 22 27 10 11 22 14 7 6 8 10 9 12 13 12 13 13 10 11 12 11 11 11 10 9 8 7 7 7 7 8 9 10 9 7 6 7 6 5 5 6 8 10 11 9 7 5 4 6
16 24 31 10 7 17 10 6 6 10 11 10 13 13 11 14 13 11 11 12 13 12 10 10 10 10 10 10 10 10 10 11 11 10 9 8 8 9 11 11 10 10 10 12 11 9 6 7 6
14 17 8 18 12 14 4 6 10 13 13 14 13 15 15 14 14 13 12 11 10 10 9 10 11 11 10 8 6 5 5 7 9 9 10 11 13 12 11 12 12 8 11 10 9 9 6 6 6
24 17 11 17 15 11 9 6 9 10 11 12 10 11 12 14 13 14 14 14 12 12 12 11 9 7 6 7 5 5 4 5 7 10 13 15 15 14 8 10 13 12 11 11 11 12 10 8 8
26 17 14 14 5 10 4 3 10 9 6 9 9 8 10 10 11 13 14 15 16 16 16 17 15 14 10 13 13 12 12 11 10 11 12 12 12 15 13 11 14 14 14 15 14 11 15 14 14
15 13 17 4 2 7 2 5 7 5 3 6 6 7 8 9 9 10 12 14 15 13 11 11 10 11 10 9 11 11 10 10 10 12 12 12 13 12 15 15 16 16 15 14 16 14 13 16 14
5 14 13 16 17 15 10 6 6 3 1 4 5 7 5 6 7 6 8 8 10 8 7 7 7 7 8 9 10 11 8 10 11 13 14 14 17 18 16 16 15 14 15 16 16 17 17 16 16
11 11 12 20 20 8 9 3 2 1 2 4 5 5 4 3 3 4 4 4 6 5 4 4 5 6 9 9 8 8 10 11 11 13 16 16 15 16 16 15 16 16 16 16 15 14 15 16 16
4 11 13 14 14 13 6 2 1 1 4 6 7 5 3 3 2 3 4 3 3 4 5 3 7 8 8 9 9 9 12 14 14 15 17 18 19 19 17 18 19 17 18 16 15 17 16 17 17
9 11 15 9 5 1 6 4 2 3 2 6 9 8 5 5 6 5 5 4 3 5 6 5 6 7 9 9 9 11 13 15 15 16 16 15 16 16 18 19 19 17 17 16 17 17 18 18 17
16 16 12 5 13 18 10 10 4 4 6 5 7 9 9 7 6 4 5 4 4 4 3 5 6 7 6 7 8 11 12 14 17 19 19 19 17 16 16 17 17 18 17 18 18 18 17 18 19
19 10 10 8 7 11 16 11 5 6 7 7 2 6 8 9 7 5 5 2 2 2 3 5 5 5 6 7 9 11 12 13 15 17 17 18 16 14 13 14 16 16 19 20 21 21 22 21 20
22 20 19 17 10 11 14 10 9 4 11 12 5 3 6 6 5 4 5 5 4 5 5 5 5 7 8 9 10 10 12 13 15 17 18 18 15 13 12 13 14 16 19 20 22 24 24 21 22
8 7 8 14 17 14 19 19 14 9 11 13 9 9 1 3 3 2 4 4 4 4 5 7 10 9 10 11 11 12 13 15 16 18 18 19 18 16 14 13 15 17 20 20 21 22 24 26 26
15 18 16 12 17 21 15 17 22 27 13 2 7 10 11 4 4 4 2 3 2 4 5 6 6 8 9 11 13 14 14 17 20 22 23 22 21 19 17 17 17 18 19 20 22 23 24 26 27
22 20 15 19 17 24 13 20 24 13 20 13 12 16 16 12 6 4 3 1 1 3 5 7 8 9 11 12 14 15 14 15 17 20 22 24 25 24 23 22 21 22 22 23 23 24 26 27 30
27 19 25 13 29 22 22 24 22 16 22 15 18 7 9 9 10 7 4 3 4 5 7 8 9 10 11 12 13 14 15 15 17 19 20 22 23 25 25 26 26 27 28 28 28 28 28 29 31
26 28 29 27 18 22 22 24 29 27 29 26 11 12 16 13 14 13 9 7 8 9 10 11 12 14 15 17 18 19 19 20 21 23 25 26 27 27 28 29 31 31 32 32 32 32 33 34 35
23 29 27 33 29 30 35 30 29 31 21 21 25 19 17 11 15 18 15 13 12 13 14 15 16 17 18 20 20 22 22 23 24 24 25 28 28 27 28 29 30 31 32 33 34 34 35 37 38
29 26 24 25 28 31 15 27 28 31 27 24 20 20 17 16 19 15 21 21 20 21 21 22 25 25 24 23 21 20 22 24 27 28 28 29 30 30 29 31 32 33 34 35 35 36 38 39 40
25 28 28 31 25 6 9 17 23 26 26 29 27 23 25 32 32 21 14 14 15 19 22 24 22 23 23 22 22 22 24 25 27 28 29 31 32 31 31 32 32 33 35 35 36 38 40 42 41
18 27 28 19 10 16 18 20 16 23 21 20 20 18 20 22 23 19 18 16 18 19 20 21 26 23 23 22 22 23 24 27 28 29 31 32 31 31 32 32 33 34 36 37 37 39 41 42 43
23 28 28 30 28 24 16 18 23 21 20 22 22 23 23 23 24 23 20 15 16 18 19 19 23 24 23 24 24 25 25 25 27 29 30 30 31 32 33 33 34 36 36 37 39 41 42 42 44
29 34 25 26 31 20 16 24 23 24 25 23 27 25 20 21 20 28 28 20 19 18 17 20 23 25 26 26 27 28 29 26 26 27 29 29 29 30 32 33 35 36 38 40 42 43 44 45 45
24 37 25 23 25 23 23 24 24 22 19 26 30 29 25 20 20 25 30 30 27 21 19 23 25 28 30 28 28 30 30 28 28 29 32 32 31 32 34 36 37 40 42 44 45 45 44 44 44
Wind_Direction
95 83 78 73 66 47 89 73 58 38 65 56 54 54 89 104 85 86 83 97 91 91 88 92 100 112 117 116 117 116 116 106 110 119 106 100 81 75 80 77 60 62 77 99 81 74 75 115 145
86 77 81 62 57 358 93 73 35 22 47 66 83 81 86 95 96 83 85 91 96 96 97 95 99 106 105 106 110 114 115 118 107 102 117 103 98 85 57 48 39 33 4 290 206 331 120 145 147
91 84 74 62 11 1 80 98 96 15 39 79 82 92 96 82 82 92 94 96 94 92 92 90 94 93 91 88 86 86 80 73 74 94 94 83 48 20 24 13 16 21 360 303 241 231 197 180 152
116 112 78 39 320 354 98 102 101 92 98 88 92 88 89 99 90 98 95 93 88 86 78 78 82 80 76 68 61 52 36 28 17 11 25 9 5 9 9 14 15 16 13 9 11 314 225 216 195
126 127 98 349 28 29 83 103 114 120 114 100 107 104 98 105 107 108 107 102 93 90 87 84 80 70 55 43 30 25 16 8 11 9 7 360 352 4 4 17 18 10 360 3 357 10 269 244 247
162 140 104 72 41 13 358 44 90 98 95 107 107 107 104 107 109 113 109 103 99 96 90 87 76 63 56 52 39 29 21 19 21 18 8 356 350 347 340 344 6 17 2 355 351 342 350 297 270
121 100 116 96 76 7 337 358 92 111 108 98 106 97 102 102 109 104 98 104 109 106 98 88 86 81 69 62 57 52 47 41 36 31 18 10 10 351 341 336 352 22 17 358 358 350 338 316 316
57 67 84 122 115 3 332 68 81 98 99 100 97 104 104 101 111 111 116 113 108 108 99 98 93 91 91 87 79 57 39 21 13 1 354 348 4 345 318 336 334 341 5 358 346 337 343 322 308
40 46 8 5 98 12 357 90 79 78 81 82 82 88 95 99 97 102 104 113 112 114 98 94 100 109 88 98 97 75 47 11 349 338 335 334 343 338 341 330 327 341 343 338 325 316 313 304 300
19 33 8 339 59 350 332 36 69 25 51 64 73 73 86 85 84 85 89 90 95 94 91 84 80 81 78 49 61 58 47 37 25 22 15 14 349 354 1 344 331 334 338 331 318 312 305 303 301
10 39 266 264 306 288 346 44 44 349 35 45 68 82 82 88 91 91 92 104 102 96 86 75 72 72 82 49 37 29 23 16 5 5 2 359 354 353 348 352 348 344 338 325 318 319 303 303 305
188 185 238 266 275 282 5 360 20 274 16 347 82 98 93 84 90 96 109 113 111 99 86 71 67 54 47 27 22 20 15 13 3 2 357 354 346 348 349 342 341 343 324 326 316 311 308 300 302
210 235 234 243 264 287 269 34 84 268 27 43 68 86 98 84 79 107 116 107 109 109 82 72 54 26 28 33 23 10 16 12 1 348 349 354 347 343 338 333 333 332 326 324 324 314 306 302 302
214 242 231 230 220 219 256 132 147 16 68 84 80 73 64 67 85 58 74 95 61 78 95 40 30 28 31 35 37 31 15 20 7 1 354 350 347 343 338 340 343 342 337 334 325 320 319 313 310
177 224 202 237 360 247 180 170 91 38 38 61 75 66 60 55 63 73 61 49 28 35 41 31 20 17 23 26 31 22 12 1 7 3 359 355 359 353 348 345 345 351 348 347 346 342 335 326 322
206 222 228 83 11 344 7 327 302 10 347 29 79 79 77 75 77 60 64 75 69 81 51 47 18 18 15 13 11 10 13 9 2 6 4 1 4 360 354 350 352 351 353 348 346 346 343 337 330
221 156 217 259 328 339 330 328 301 327 310 332 81 109 99 88 67 42 22 31 50 45 30 29 9 358 4 8 9 5 9 15 11 8 5 3 360 360 352 350 349 351 346 346 346 343 343 336 330
174 177 241 253 280 314 295 319 256 286 282 280 316 127 111 92 93 43 28 18 19 38 40 30 19 6 3 360 360 360 6 10 8 5 4 6 1 355 349 344 349 348 345 345 346 346 344 337 327
159 286 245 248 247 279 291 315 286 280 271 255 306 317 19 128 108 61 93 51 32 40 39 34 27 13 3 360 356 357 2 2 359 357 358 356 355 353 346 345 344 347 344 340 340 339 334 331 331
167 232 287 298 296 285 294 294 304 311 248 221 360 4 309 272 166 154 78 82 45 62 39 27 14 14 11 2 356 352 351 353 356 355 354 352 348 347 344 339 338 340 339 337 334 331 329 328 328
172 195 269 266 258 264 242 289 305 311 275 296 329 329 314 264 253 194 164 169 128 7 351 349 345 345 354 351 347 343 341 340 343 342 344 346 344 344 340 337 331 330 330 330 329 326 327 324 321
185 196 198 235 266 274 298 293 287 290 292 288 295 339 343 280 266 271 263 287 317 315 308 308 316 327 330 326 324 326 328 327 327 328 331 333 335 336 335 334 330 325 323 324 324 323 323 321 322
220 204 205 199 230 268 263 268 289 287 292 285 288 285 292 284 260 269 264 263 278 283 291 296 302 309 311 313 314 321 325 327 328 327 326 326 325 326 325 328 326 324 321 319 318 318 318 320 321
208 222 224 206 205 231 248 261 269 273 293 287 298 289 304 273 241 256 266 268 275 278 280 285 290 292 298 304 309 310 315 320 320 320 321 321 319 320 318 316 317 317 317 315 314 315 315 317 318
214 220 207 223 226 236 257 240 249 268 278 283 280 297 301 284 278 265 247 263 273 280 274 285 289 290 296 297 298 303 301 305 309 312 315 317 316 314 313 312 314 316 316 314 312 313 314 313 314
228 194 209 212 229 266 307 241 259 264 273 274 292 298 291 293 288 292 283 260 260 274 283 289 294 297 298 299 295 294 299 301 306 310 313 315 314 314 312 311 311 314 314 311 310 312 313 312 312
202 202 228 205 235 267 282 269 263 259 279 285 288 304 304 301 298 295 278 281 281 289 292 291 296 300 299 297 296 299 302 302 307 309 311 313 313 312 311 310 312 314 313 311 311 312 312 312 312
213 230 232 205 228 232 244 281 269 279 277 275 275 297 313 324 301 293 285 275 283 280 284 287 288 296 297 300 302 305 304 305 305 307 309 313 314 314 313 312 313 312 312 312 314 312 310 311 313
204 225 224 217 222 226 243 244 249 265 265 260 281 299 306 310 311 288 287 288 279 278 287 288 289 294 298 299 302 303 304 307 305 313 314 317 314 312 312 312 312 313 315 315 313 311 310 314 313
234 232 218 228 207 219 230 250 265 257 268 276 284 295 297 306 297 305 298 294 294 290 289 291 294 292 291 295 297 299 301 308 315 315 313 313 311 313 313 313 314 316 315 315 313 313 312 312 310
Height
5907 5906 5906 5904 5903 5904 5904 5901 5899 5898 5901 5904 5903 5901 5902 5903 5904 5908 5905 5906 5907 5908 5909 5910 5910 5910 5913 5914 5915 5915 5916 5916 5917 5918 5918 5918 5918 5919 5920 5921 5922 5921 5921 5921 5918 5918 5918 5917 5918
5911 5911 5910 5905 5904 5909 5906 5904 5901 5899 5900 5905 5907 5906 5907 5909 5904 5908 5909 5909 5910 5911 5912 5912 5914 5916 5917 5918 5918 5918 5919 5920 5919 5920 5920 5920 5920 5921 5923 5924 5924 5923 5923 5922 5922 5921 5919 5918 5919
5913 5913 5911 5905 5911 5913 5909 5908 5906 5899 5900 5904 5907 5909 5908 5910 5907 5910 5912 5913 5913 5914 5914 5915 5916 5919 5920 5920 5920 5921 5922 5922 5922 5923 5922 5922 5923 5925 5925 5927 5927 5927 5926 5925 5924 5923 5921 5920 5921
5917 5916 5914 5912 5913 5913 5911 5911 5910 5909 5909 5909 5909 5910 5910 5909 5911 5913 5914 5915 5915 5916 5917 5918 5919 5920 5922 5923 5924 5924 5924 5924 5925 5926 5926 5927 5927 5927 5927 5927 5928 5928 5928 5927 5926 5925 5923 5922 5922
5915 5916 5911 5918 5913 5912 5914 5913 5912 5913 5912 5912 5911 5913 5912 5912 5914 5915 5917 5918 5918 5918 5920 5921 5922 5923 5924 5924 5925 5926 5927 5927 5928 5929 5929 5927 5927 5928 5928 5928 5928 5929 5929 5929 5928 5925 5924 5923 5923
5914 5916 5913 5918 5918 5918 5917 5915 5915 5913 5913 5914 5912 5913 5914 5914 5916 5918 5918 5919 5920 5921 5923 5924 5925 5925 5926 5926 5928 5928 5928 5929 5929 5929 5927 5927 5928 5928 5927 5927 5927 5927 5928 5928 5928 5926 5925 5924 5924
5921 5914 5915 5921 5923 5921 5920 5918 5918 5916 5916 5916 5915 5915 5917 5917 5918 5919 5919 5920 5921 5923 5925 5925 5926 5927 5928 5928 5929 5929 5928 5928 5928 5927 5927 5928 5930 5930 5931 5929 5927 5925 5925 5926 5927 5926 5925 5924 5924
5917 5918 5916 5914 5921 5924 5922 5922 5920 5919 5919 5918 5918 5918 5920 5919 5920 5921 5922 5923 5924 5925 5926 5927 5929 5929 5929 5930 5930 5930 5930 5929 5928 5927 5928 5930 5932 5930 5930 5930 5928 5925 5924 5924 5926 5925 5924 5924 5924
5923 5926 5920 5920 5918 5923 5924 5925 5924 5923 5922 5921 5921 5920 5920 5921 5921 5922 5923 5924 5925 5926 5927 5928 5929 5930 5931 5932 5931 5931 5931 5931 5930 5930 5930 5930 5931 5929 5929 5929 5927 5925 5922 5923 5925 5925 5924 5923 5922
5921 5929 5924 5926 5922 5926 5930 5927 5922 5925 5926 5924 5921 5921 5922 5921 5922 5923 5924 5925 5927 5928 5929 5930 5930 5931 5932 5933 5932 5932 5932 5932 5931 5931 5931 5931 5930 5929 5928 5927 5926 5924 5921 5922 5924 5924 5922 5922 5921
5930 5925 5930 5933 5928 5926 5929 5930 5925 5924 5927 5927 5924 5923 5924 5924 5925 5925 5926 5927 5928 5929 5931 5931 5931 5932 5933 5933 5933 5933 5932 5932 5931 5931 5930 5929 5929 5929 5926 5923 5922 5921 5920 5921 5921 5921 5920 5919 5918
5933 5938 5933 5928 5927 5930 5932 5929 5927 5927 5928 5929 5926 5924 5925 5925 5926 5927 5928 5929 5929 5930 5931 5932 5932 5932 5933 5934 5934 5933 5933 5931 5930 5929 5930 5928 5925 5924 5923 5922 5922 5921 5920 5919 5917 5917 5916 5915 5914
5937 5935 5936 5930 5925 5930 5932 5930 5931 5930 5930 5930 5927 5926 5926 5927 5927 5928 5929 5929 5930 5931 5931 5931 5932 5932 5932 5933 5933 5933 5932 5931 5930 5929 5928 5928 5927 5925 5923 5923 5921 5918 5916 5914 5913 5913 5911 5910 5911
5932 5936 5934 5930 5932 5934 5934 5933 5933 5933 5931 5930 5928 5927 5928 5929 5930 5930 5930 5930 5930 5931 5932 5931 5932 5932 5932 5932 5933 5932 5931 5931 5930 5929 5927 5925 5923 5921 5920 5917 5916 5915 5913 5912 5910 5909 5907 5906 5906
5934 5934 5932 5932 5931 5932 5933 5933 5933 5933 5933 5930 5928 5928 5929 5930 5931 5932 5932 5932 5932 5931 5932 5932 5933 5932 5932 5932 5933 5933 5931 5929 5929 5929 5927 5924 5922 5920 5918 5916 5914 5912 5911 5909 5907 5906 5905 5904 5903
5932 5933 5933 5932 5931 5928 5932 5935 5933 5932 5931 5930 5929 5930 5930 5931 5933 5933 5933 5933 5933 5933 5933 5933 5932 5933 5932 5932 5932 5931 5930 5930 5928 5927 5924 5923 5921 5919 5918 5917 5914 5912 5910 5909 5906 5905 5903 5901 5899
5928 5929 5930 5931 5932 5932 5931 5933 5934 5932 5932 5933 5933 5932 5931 5932 5933 5933 5934 5934 5934 5934 5933 5933 5933 5933 5933 5932 5932 5931 5931 5930 5929 5927 5925 5922 5920 5919 5918 5916 5913 5911 5908 5906 5903 5901 5900 5898 5896
5925 5928 5928 5930 5933 5932 5931 5934 5935 5933 5933 5934 5935 5933 5932 5933 5932 5932 5933 5934 5934 5934 5933 5933 5933 5932 5933 5933 5932 5931 5929 5928 5928 5926 5924 5922 5920 5918 5917 5915 5912 5910 5906 5903 5901 5898 5896 5894 5892
5925 5927 5930 5926 5930 5932 5931 5929 5932 5931 5932 5932 5933 5935 5933 5932 5933 5932 5933 5933 5934 5934 5933 5932 5932 5933 5932 5931 5931 5930 5928 5927 5925 5924 5923 5921 5919 5917 5915 5913 5910 5907 5904 5901 5899 5896 5893 5889 5887
5923 5928 5929 5931 5927 5930 5930 5927 5929 5929 5933 5931 5931 5933 5935 5934 5933 5932 5931 5932 5932 5933 5932 5933 5932 5932 5931 5930 5929 5928 5926 5924 5922 5920 5918 5917 5916 5914 5912 5910 5908 5905 5902 5898 5896 5893 5890 5886 5882
5920 5928 5929 5929 5927 5928 5927 5925 5928 5929 5927 5928 5929 5928 5930 5933 5931 5931 5931 5932 5932 5931 5931 5930 5930 5930 5928 5927 5927 5926 5925 5923 5922 5920 5917 5914 5911 5909 5907 5905 5903 5900 5898 5895 5892 5888 5884 5881 5876
5918 5923 5928 5928 5920 5919 5922 5924 5923 5924 5923 5924 5924 5924 5925 5928 5928 5928 5927 5927 5928 5928 5929 5929 5928 5927 5927 5926 5925 5924 5922 5921 5919 5917 5915 5913 5910 5906 5903 5900 5897 5894 5891 5889 5886 5883 5879 5876 5871
5915 5918 5921 5925 5924 5924 5921 5920 5919 5918 5920 5917 5917 5919 5922 5925 5926 5925 5926 5926 5925 5926 5926 5926 5925 5925 5924 5923 5921 5919 5917 5916 5914 5911 5908 5907 5905 5902 5898 5895 5891 5888 5885 5882 5879 5876 5872 5868 5864
5910 5912 5915 5919 5920 5919 5920 5918 5915 5915 5920 5920 5917 5914 5917 5920 5924 5925 5924 5924 5923 5923 5923 5923 5922 5922 5921 5919 5917 5915 5912 5911 5909 5907 5905 5902 5900 5898 5894 5892 5889 5885 5880 5876 5872 5868 5864 5860 5857
5903 5906 5909 5912 5912 5910 5915 5913 5912 5914 5916 5914 5914 5913 5914 5915 5920 5921 5922 5921 5922 5919 5920 5919 5917 5916 5915 5914 5913 5911 5910 5908 5905 5902 5900 5897 5894 5892 5889 5885 5881 5877 5872 5868 5864 5860 5856 5852 5848
5896 5901 5903 5904 5908 5909 5909 5909 5908 5910 5911 5909 5911 5911 5910 5909 5910 5913 5915 5915 5917 5916 5915 5913 5911 5909 5908 5908 5907 5906 5904 5902 5900 5898 5895 5891 5887 5884 5882 5878 5875 5870 5865 5861 5856 5852 5848 5843 5839
5894 5895 5901 5903 5905 5906 5907 5905 5906 5906 5907 5906 5906 5905 5907 5906 5902 5903 5907 5909 5911 5909 5909 5907 5904 5904 5903 5902 5901 5900 5898 5896 5894 5890 5887 5884 5881 5877 5874 5871 5867 5863 5858 5853 5849 5844 5840 5835 5830
5890 5894 5896 5896 5898 5901 5904 5902 5899 5898 5898 5900 5901 5902 5900 5900 5899 5898 5902 5905 5906 5905 5904 5903 5900 5898 5898 5897 5895 5895 5893 5891 5888 5885 5881 5877 5874 5870 5867 5864 5860 5856 5851 5846 5841 5836 5830 5826 5820
5884 5885 5889 5894 5895 5898 5900 5898 5899 5897 5897 5897 5898 5901 5898 5897 5895 5896 5897 5902 5902 5900 5899 5897 5896 5894 5892 5891 5888 5887 5885 5884 5881 5878 5873 5869 5866 5863 5860 5857 5852 5847 5842 5837 5832 5826 5821 5816 5810
5881 5881 5884 5886 5890 5893 5894 5892 5888 5893 5894 5893 5892 5891 5895 5897 5895 5895 5893 5895 5896 5894 5894 5893 5891 5888 5886 5885 5882 5879 5878 5876 5872 5869 5865 5862 5859 5856 5853 5849 5843 5838 5833 5828 5823 5818 5812 5807 5800